Location: La Sioule Rivi�re
(46.3664°N, 3.3197°E)
Time: 12:35:51
(UTC+00:00)

NOSS 3-4 (C) - Pass Details

Date: 29 October 2020
Orbit: 886 x 1326 km, 63.4° (Epoch: 06 November)

Event Time Altitude Azimuth Distance (km) Brightness Sun altitude
Rises 19:43:24 0° 319° (NW) 3,836 7.4 -32.7°
Reaches altitude 10° 19:45:57 10° 316° (NW) 2,938 6.6 -33.1°
Maximum altitude 19:52:54 65° 237° (WSW) 1,278 4.0 -34.3°
Enters shadow 19:53:11 65° 225° (SW) 1,286 4.0 -34.3°
